Location: Z�rich
(47.3800°N, 8.5432°E)
Time: 02:36:51
(UTC+01:00)

ISS - Visible Passes

Search period start: 08 December 2021 00:00
Search period end: 18 December 2021 00:00
Orbit: 417 x 422 km, 51.6° (Epoch: 07 December)

Date Brightness Start Highest point End Pass type
(mag) Time Alt. Az. Time Alt. Az. Time Alt. Az.
08 Dec -1.1 18:04:12 10° W 18:06:51 21° SW 18:09:31 10° S visible
09 Dec -1.7 17:16:32 10° WNW 17:19:36 32° SW 17:22:40 10° SSE visible
11 Dec -0.4 17:19:26 10° WSW 17:21:16 14° SW 17:23:05 10° SSW visible
